Location: Bidwell Hollow
(37.7387°N, 90.1707°W)
Time: 01:52:35
(UTC+00:00)

Vanguard 3 - Pass Details

Date: 15 May 2026
Orbit: 507 x 3204 km, 33.3° (Epoch: 6 June)

Event Time Altitude Azimuth Distance (km) Brightness Sun altitude
Rises 02:41:46 0° 282° (WNW) 6,507 12.8 -17.2°
Reaches altitude 10° 02:47:54 10° 270° (W) 5,029 11.8 -18.0°
Maximum altitude 02:56:58 21° 228° (SW) 3,320 10.3 -19.3°
Enters shadow 03:02:57 11° 185° (S) 3,363 9.9 -20.2°
Drops below altitude 10° 03:03:26 10° 182° (S) 3,424 - -20.2°
Sets 03:06:39 0° 166° (SSE) 4,011 - -20.7°
